Home > Weather > Rheine > Past weeks

Flag for Germany Past Weather in Rheine, North Rhine-Westphalia, Germany — Yesterday and Last 2 Weeks

Now
59 °F

Cool.


Feels Like: 59 °F
Forecast: 59 / 71 °F
Wind: 1 mph from South

Location: Rheine-Bentlage

Current Time: Jul 28, 2016 at 5:05:13 AM

Latest Report: Jul 28, 2016 at 4:20 AM


Visibility: N/A

Pressure: 30.01 "Hg

Humidity: 100%

Dew Point: 59 °F

Location of RheineLocation

Past Weather in Rheine — Graph

°F

Rheine Temperature Yesterday

Maximum temperature yesterday: 72 °F (at 2:20 PM)
Minimum temperature yesterday: 61 °F (at 3:20 AM)
Average temperature yesterday: 66 °F

High & Low Weather Summary for the Past Weeks

 TemperatureHumidityPressure
High91 °F (Jul 20, 4:20 PM)100% (Jul 13, 6:20 AM)30.24 "Hg (Jul 13, 6:20 AM)
Low48 °F (Jul 14, 4:20 AM)30% (Jul 20, 4:20 PM)29.83 "Hg (Jul 20, 6:20 PM)
Average67 °F76%30.08 "Hg
* Reported Jul 13 3:20 AM — Jul 28 3:20 AM, Rheine, Weather by CustomWeather, © 2016

Note: Actual official high and low records may vary slightly from our data, if they occured in-between our weather recording intervals... More about our weather records

Advertising

Rheine Weather History for the Previous 24 Hours

Scroll right to see more
 ConditionsComfort  
Time TempWeatherWind HumidityBarometerVisibility
3:20 AM
Thu, Jul 28
61 °FCool.3 mph100%30.01 "HgN/A
2:20 AM63 °FMild.5 mph94%30.01 "HgN/A
1:20 AM63 °FMild.7 mph94%29.98 "HgN/A
12:20 AM63 °FMild.6 mph94%30.01 "HgN/A
11:20 PM
Wed, Jul 27
63 °FMild.5 mph94%30.01 "HgN/A
10:20 PM63 °FMild.7 mph94%30.01 "HgN/A
9:20 PM68 °FMild.9 mph73%29.98 "HgN/A
8:20 PM68 °FMild.7 mph73%29.98 "HgN/A
7:20 PM70 °FMild.6 mph64%29.98 "HgN/A
6:20 PM70 °FMild.8 mph64%29.98 "HgN/A
5:20 PM72 °FMild.12 mph61%29.98 "HgN/A
4:20 PM72 °FMild.12 mph57%29.98 "HgN/A
3:20 PM72 °FMild.12 mph53%29.98 "HgN/A
2:20 PM72 °FScattered clouds.14 mph57%29.98 "HgN/A
1:20 PM70 °FPartly sunny.9 mph64%30.01 "HgN/A
12:20 PM70 °FScattered clouds.10 mph69%30.01 "HgN/A
11:20 AM70 °FScattered clouds.10 mph69%30.01 "HgN/A
10:20 AM70 °FPartly sunny.8 mph69%30.01 "HgN/A
9:20 AM66 °FScattered clouds.6 mph78%30.01 "HgN/A
8:20 AM64 °FPartly sunny.6 mph83%30.01 "HgN/A
7:20 AM63 °FBroken clouds.2 mph88%30.01 "HgN/A
6:20 AM63 °FPartly cloudy.2 mph88%30.04 "HgN/A
5:20 AM61 °FCool.3 mph94%30.04 "HgN/A
Weather by CustomWeather, © 2016

See weather overviewHow to use our weather pages